Regional Weather Roundup
Issued by NWS Mt. Holly, NJ

Home | Current Version | Previous Version | Text Only | Print | Product List | Glossary On
Versions: 1 2 3 4 5 6 7 8 9 10 11 12 13 14 15 16 17 18 19 20 21 22 23 24 25 26 27 28 29 30 31 32 33 34 35 36 37 38 39 40 41 42 43 44 45 46 47 48 49 50
000
ASUS41 KPHI 290711
RWRPHI

REGIONAL WEATHER ROUNDUP
NATIONAL WEATHER SERVICE MOUNT HOLLY NJ
300 AM EDT SUN MAR 29 2015

NOTE:  "FAIR" INDICATES FEW OR NO CLOUDS BELOW 12,000 FEET WITH NO
SIGNIFICANT WEATHER AND/OR OBSTRUCTIONS TO VISIBILITY.

 * = STATION DOES NOT REPORT PRECIPITATION (E.G. RAIN, SNOW, ETC.)
        OR FOG.

NJZ015>026-290800-
SOUTHERN NEW JERSEY

CITY           SKY/WX    TMP DP  RH WIND       PRES   REMARKS
POMONA         MOCLDY    26   7  44 NW14      30.17S WCI  14
RIO GRANDE*    PTCLDY    27   7  43 N15       30.19F WCI  15
MILLVILLE      MOCLDY    26   7  44 NW9       30.20R WCI  17
WRIGHTSTOWN    CLOUDY    25   6  43 NW10      30.15R WCI  15
MOUNT HOLLY    CLOUDY    26   7  44 NW7       30.19R WCI  18
TRENTON        CLOUDY    26   4  38 N12       30.16R WCI  16

$$
NJZ001>014-290800-
NORTHERN NEW JERSEY

CITY           SKY/WX    TMP DP  RH WIND       PRES   REMARKS
SUSSEX         PTCLDY    23   3  42 NW9       30.15R WCI  13
ANDOVER*         N/A     23   3  42 N10G18    30.15R WCI  12
MORRISTOWN     CLOUDY    28   3  34 NW8       30.16S WCI  20
NEWARK         CLOUDY    27   6  41 NW18      30.16R WCI  14
TETERBORO      CLOUDY    27   9  46 NW10      30.15R WCI  17
CALDWELL       CLOUDY    25   4  40 NW10      30.16R WCI  15
SOMERVILLE     CLOUDY    27   2  34 N12G24    30.16R WCI  17
ALLAIRE*       CLOUDY    27   9  46 NW12      30.14S WCI  16
TOMS RIVER*    CLOUDY    27  10  50 NW9       30.16R WCI  17

$$
PAZ043-044-047-054-055-060>062-066>071-290800-
EASTERN PENNSYLVANIA

CITY           SKY/WX    TMP DP  RH WIND       PRES   REMARKS
PHILADELPHIA   MOCLDY    27   4  37 NW14      30.21S WCI  16
NORTH PHILA    CLOUDY    27   4  37 NW8       30.20S WCI  19
BLUE BELL      PTCLDY    27   9  46 NW7       30.18S WCI  19
DOYLESTOWN     CLOUDY    24   6  46 NW9G16    30.16S WCI  14
QUAKERTOWN*    PTCLDY    23   7  50 N15G23    30.18S WCI  10
POTTSTOWN      CLEAR     23   5  46 NW6       30.21R WCI  16
LANCASTER      CLEAR     24   6  46 NW9       30.22R WCI  14
COATESVILLE    CLEAR     25   5  42 NW12G17   30.19S WCI  14
READING        CLEAR     24   4  42 NW10      30.21R WCI  14
ALLENTOWN      PTCLDY    24   6  46 NW12      30.19R WCI  13
MOUNT POCONO   CLEAR     16   4  59 NW15G25   30.05S WCI   1
HAZLETON       MOCLDY    19   5  53 W10G20    30.14S WCI   8
WILKES BARRE   CLOUDY    20   5  52 VRB5      30.17R WCI  13

$$
DEZALL-MDZ008-012-015-019-020-290800-
DELAWARE AND EASTERN MARYLAND

CITY           SKY/WX    TMP DP  RH WIND       PRES   REMARKS
WILMINGTON     PTCLDY    24   6  46 NW9       30.23R WCI  14
DOVER          MOCLDY    27   7  42 NW16      30.21R WCI  14
GEORGETOWN     PTCLDY    28   7  41 N8        30.22R WCI  20
EASTON         CLEAR     31   9  40 N10G22    30.28R WCI  22
PATUXENT       FAIR      30   6  36 NW23G31   30.25R WCI  17
OCEAN CITY     CLEAR     27  13  55 NW7       30.21S WCI  19
WALLOPS ISLAND CLEAR     28  12  51 NW8       30.23S WCI  20
CAMBRIDGE      PTCLDY    32  10  40 NW14G20   30.23S WCI  22
SALISBURY      CLEAR     28  12  51 NW8       30.22R WCI  20

$$
PAZ001-021-NYZ056-072-MDZ011-DCZ001-290800-
OTHER NEARBY LOCATIONS

CITY           SKY/WX    TMP DP  RH WIND       PRES   REMARKS
HARRISBURG     CLEAR     26   5  40 NW15      30.24S WCI  14
STATE COLLEGE  CLEAR     19   8  62 W6        30.23S WCI  10
WILLIAMSPORT   CLEAR     20   5  52 W6        30.24R WCI  12
BINGHAMTON     CLEAR     14   5  67 NW5       30.11S WCI   6
NEW YORK CITY  CLOUDY    27   9  46 VRB7      30.16R WCI  19
BALTIMORE      CLEAR     26   3  37 NW9       30.26R WCI  17
WASHINGTON DC  CLEAR     30   4  33 NW12G22   30.30R WCI  20

$$


USA.gov is the U.S. government's official web portal to all federal, state and local government web resources and services.